sat.trackr.live / text

‹ back to catalog

STARLINK-4533

NORAD 53406 · 2022-097U

PAYLOAD ACTIVE UNKNOWN

§ Identity

Operator
Country
US
Launch date
2022-08-10
Launch site
AFETR
Launch vehicle
Mass (kg)
RCS (m²)

Purposes: comms

External: N2YO · Heavens-Above · Gunter

§ Orbital elements

Epoch: 2026-05-25T03:26:21.846624Z

Period
95.44 min
Inclination
53.2124°
Eccentricity
0.0001142
Mean motion
15.08838075 rev/d
Perigee alt
539.0 km
Apogee alt
540.5 km
Semi-major
6,917.9 km
B*
5.0112e-5
RAAN
130.9084°
Arg perigee
71.7148°
Mean anomaly
288.3969°
Rev number
21,019

§ Raw data

STARLINK-45331 53406U 22097U   26145.14330841  .00000510  00000+0  50112-4 0  99982 53406  53.2124 130.9084 0001142  71.7148 288.3969 15.08838075210191

JSON: /api/v1/satellites/53406 · /tle

For live sub-satellite position, see the globe view (requires WebGL).

§ Visibility from observer

Set your observer location to see the next 7 days of passes ≥ 10°. The values pass through the URL so the page stays shareable.

No JS? Fill the form by hand. The geolocation button needs JavaScript.